Date,TemperatureHighF,TemperatureAvgF,TemperatureLowF,DewpointHighF,DewpointAvgF,DewpointLowF,HumidityHigh,HumidityAvg,HumidityLow,PressureMaxIn,PressureMinIn,WindSpeedMaxMPH,WindSpeedAvgMPH,GustSpeedMaxMPH,PrecipitationSumIn
2012-8-23,85.0,72.2,62.5,62.8,60.5,58.0,88,69,40,30.05,30.00,4,0,0,0.00
2012-8-24,89.8,71.7,55.2,66.3,59.8,53.2,94,70,38,30.09,29.99,6,1,0,0.00
2012-8-25,89.9,73.8,58.0,67.6,61.1,56.0,94,68,36,30.10,30.01,7,1,0,0.00
2012-8-26,87.6,73.4,56.8,67.2,61.8,54.4,92,69,48,30.12,29.97,7,2,0,0.00
2012-8-30,87.2,77.5,58.6,61.0,56.4,52.9,88,52,32,30.04,29.97,4,1,0,0.00
2012-8-31,93.8,73.2,51.9,70.9,62.1,49.9,94,72,41,30.07,29.94,6,1,0,0.00
2012-9-1,87.3,77.2,70.9,75.1,71.0,68.0,93,82,64,30.03,29.92,6,1,0,0.43
2012-9-2,81.5,74.5,69.5,72.5,70.6,67.4,94,88,71,29.97,29.84,6,1,0,0.02
2012-9-3,87.3,76.8,68.0,75.5,70.3,66.2,94,82,63,29.87,29.78,8,3,0,0.00
2012-9-4,80.6,74.2,70.3,74.3,71.1,68.3,94,90,80,29.85,29.72,6,2,0,0.36
2012-9-5,84.6,74.5,67.7,70.1,68.0,65.1,94,82,58,29.83,29.74,4,0,0,0.00
2012-9-6,87.5,75.7,63.8,71.7,67.3,61.9,94,78,51,29.84,29.76,6,2,0,0.00
2012-9-7,86.9,74.6,64.5,73.9,67.5,62.3,94,80,59,29.86,29.61,6,2,0,0.02
2012-9-8,73.7,65.3,56.8,67.3,59.9,52.5,94,84,56,29.78,29.47,8,2,0,0.24
2012-9-9,71.8,63.4,52.1,56.2,53.0,49.6,93,70,51,30.01,29.89,4,1,0,0.00
2012-9-10,67.3,52.3,45.7,55.0,48.5,44.1,94,88,58,30.16,30.01,3,0,0,0.00
2012-9-12,79.3,66.4,57.8,60.1,57.7,55.1,91,75,51,30.20,30.16,3,0,0,0.01
2012-9-13,78.8,59.7,53.3,65.1,56.4,51.6,94,89,63,30.25,30.14,4,0,0,0.00
2012-9-14,79.8,62.2,49.4,65.3,57.4,47.5,94,85,57,30.22,30.08,7,1,0,0.00
2012-9-15,73.0,58.5,47.3,58.9,50.1,45.3,98,77,44,30.25,30.11,2,0,0,0.01
2012-9-16,73.4,64.0,44.6,53.5,50.0,43.0,94,63,43,30.14,30.00,4,1,0,0.00
2012-9-17,66.2,63.6,51.4,59.0,56.8,49.7,94,79,72,29.98,29.76,2,0,0,0.00
2012-9-18,64.5,58.8,51.5,62.7,54.1,46.2,94,85,70,29.88,29.51,2,0,0,0.28
2012-9-19,64.3,52.1,38.7,46.1,41.9,36.9,94,71,40,30.12,29.88,4,1,0,0.00
2012-9-20,69.4,51.3,37.9,55.5,45.1,36.3,94,81,53,30.07,29.87,8,1,0,0.00
2012-9-21,71.3,61.8,54.6,58.0,54.1,47.5,92,78,46,29.90,29.69,6,1,0,0.01
2012-9-22,56.6,49.7,42.8,50.9,46.2,40.2,92,88,80,30.04,29.84,10,2,0,0.55
2012-9-23,61.9,48.8,35.9,49.8,41.5,34.1,94,78,46,30.16,30.04,5,1,0,0.01
2012-9-24,63.0,48.5,34.6,44.0,39.0,32.8,94,73,42,30.22,30.01,7,2,0,0.00
2012-9-25,67.7,52.6,38.2,56.3,46.7,36.4,95,82,56,30.06,29.91,10,3,0,0.01
2012-9-26,63.9,60.9,58.8,61.9,58.7,56.0,94,92,89,30.04,29.91,6,2,0,0.23
2012-9-27,63.1,59.2,53.9,61.4,57.5,52.2,96,94,94,30.10,30.03,3,1,0,0.44
2012-9-28,66.4,55.7,46.1,56.6,50.0,43.9,95,83,57,30.09,30.00,3,0,0,0.01
2012-9-29,67.9,52.4,39.8,53.7,45.3,38.2,95,79,51,30.05,29.88,4,0,0,0.00
2012-9-30,66.1,62.3,53.7,54.6,50.1,46.6,80,64,54,29.84,29.79,4,2,0,0.01
2012-10-1,65.4,58.7,41.3,53.1,48.5,39.7,94,71,52,29.91,29.74,4,1,0,0.12
2012-10-2,73.5,63.7,53.7,69.1,61.2,51.7,94,92,85,29.80,29.70,3,0,0,0.05
2012-10-3,74.4,66.2,55.6,65.8,60.7,53.6,94,84,59,30.08,29.78,8,2,0,0.01
2012-10-4,74.4,61.2,53.2,59.6,55.0,51.5,94,82,54,30.13,30.05,8,2,0,0.00
2012-10-5,73.5,62.5,50.8,62.3,56.8,47.8,94,82,65,30.06,29.84,6,2,0,0.02
2012-10-6,57.7,48.6,42.5,47.9,41.6,37.1,94,79,48,30.06,29.83,7,2,0,0.47
2012-10-7,49.4,43.4,34.9,41.3,39.0,32.9,93,84,64,30.14,30.02,5,1,0,0.02
2012-10-8,51.7,41.3,34.1,42.7,36.6,32.3,94,84,62,30.22,30.13,5,1,0,0.00
2012-10-9,59.8,49.6,34.4,46.4,40.1,32.9,94,72,50,30.19,29.96,6,2,0,0.01
2012-10-10,48.2,42.6,37.5,45.1,39.1,30.8,94,88,64,30.15,29.86,5,2,0,0.01
2012-10-11,59.3,42.4,27.5,37.5,32.3,25.5,94,71,39,30.26,30.09,8,2,0,0.00
2012-10-12,54.3,42.5,31.7,42.5,35.1,29.1,93,77,41,30.37,30.11,5,1,0,0.00
2012-10-13,68.3,49.0,26.9,54.0,39.8,25.1,94,73,49,30.37,29.98,8,3,0,0.01
2012-10-14,76.8,67.3,61.5,61.1,57.2,53.8,82,70,55,29.98,29.57,14,7,0,0.04
2012-10-15,68.3,54.3,48.0,59.7,49.4,44.3,94,84,73,29.86,29.56,12,4,0,0.22
2012-10-16,60.1,49.8,39.8,45.1,41.7,37.7,92,75,54,29.94,29.79,5,1,0,0.00
2012-10-17,74.0,55.6,38.6,54.3,46.6,36.8,94,74,46,29.83,29.61,8,2,0,0.00
2012-10-18,63.5,55.1,43.6,53.8,47.8,41.3,92,77,61,29.73,29.50,13,4,0,0.09
2012-10-19,63.9,50.9,42.2,49.3,42.8,36.6,94,77,40,29.71,29.52,11,4,0,0.09
2012-10-20,53.9,49.0,45.4,46.7,43.4,40.1,93,82,63,29.90,29.63,8,3,0,0.02
2012-10-21,61.2,45.6,35.5,46.8,39.8,33.7,94,82,52,30.09,29.90,6,1,0,0.00
2012-10-22,75.6,52.9,34.8,58.2,45.8,33.0,94,79,50,30.13,29.99,7,1,0,0.00
2012-10-23,75.6,62.4,52.8,59.8,54.1,49.8,93,76,50,30.00,29.91,9,2,0,0.02
2012-10-24,78.7,63.6,52.5,60.1,55.4,49.8,93,77,48,30.05,29.95,7,1,0,0.02
2012-10-25,82.0,61.6,46.6,57.4,50.8,45.0,98,73,35,30.03,29.90,8,2,0,0.00
2012-10-26,67.2,54.5,49.2,56.9,49.5,46.0,92,84,64,30.05,29.91,7,2,0,0.00
2012-10-27,50.3,47.7,44.9,47.7,45.2,43.0,98,91,85,30.02,29.93,5,3,0,0.58
2012-10-28,47.8,43.3,40.7,43.8,41.0,38.6,93,92,86,30.00,29.86,7,4,0,0.76
2012-10-29,42.4,41.2,40.3,40.5,39.3,38.4,98,93,92,29.87,29.31,8,4,0,0.79
2012-10-30,46.9,43.4,39.5,45.3,41.7,37.6,98,94,93,29.38,29.12,7,3,0,0.76
2012-10-31,41.4,39.2,37.5,38.6,37.1,35.4,94,92,88,29.64,29.37,7,5,0,0.13
2012-11-1,41.8,39.6,37.0,39.1,36.9,33.4,94,90,83,29.74,29.63,7,3,0,0.02
2012-11-2,40.8,39.1,35.0,35.8,33.3,30.4,84,80,74,29.77,29.72,3,1,0,0.00
2012-11-3,43.1,39.9,35.2,35.1,33.9,31.9,90,79,70,30.09,30.07,2,0,0,0.00
2012-11-4,39.9,36.8,32.2,34.1,32.2,29.8,100,83,71,30.11,30.07,3,0,0,0.00
2012-11-5,40.1,37.5,35.7,34.5,30.6,27.7,86,76,67,30.14,30.08,4,1,0,0.00
2012-11-6,48.4,35.1,23.9,31.8,27.1,21.7,93,74,47,30.12,29.90,5,1,0,0.00
2012-11-7,46.5,33.5,24.1,31.8,26.7,22.1,94,78,54,30.05,29.89,5,1,0,0.01
2012-11-8,47.8,33.4,22.7,36.3,28.2,20.7,93,83,59,30.17,30.05,4,1,0,0.00
2012-11-9,55.1,37.3,23.8,41.2,31.9,22.1,94,82,56,30.23,30.12,6,1,0,0.01
2012-11-10,65.9,50.5,38.8,48.2,43.5,36.7,94,79,50,30.18,30.08,7,2,0,0.16
2012-11-11,68.6,50.3,35.6,47.2,39.7,33.8,94,71,37,30.27,30.07,10,2,0,0.00
2012-11-12,64.3,58.3,42.2,55.4,48.8,38.0,92,72,44,30.12,29.91,11,7,0,0.49
2012-11-15,35.5,32.8,30.4,29.7,28.9,27.3,88,85,79,30.32,30.28,0,0,0,0.00
2012-11-16,30.3,27.0,24.9,27.2,24.7,22.9,93,91,88,30.47,30.31,0,0,0,0.00
2012-11-17,56.5,36.8,24.1,37.5,29.0,22.4,94,77,42,30.57,30.47,5,1,0,0.01
2012-11-18,57.9,34.9,22.7,35.5,27.6,20.7,94,78,37,30.49,30.39,4,0,0,0.00
2012-11-19,53.7,39.1,25.0,36.3,31.4,22.7,94,76,47,30.39,30.17,3,0,0,0.01
2012-11-20,57.6,43.3,32.2,41.2,35.6,29.6,93,76,51,30.17,30.04,1,0,0,0.00
2012-11-21,36.5,33.6,30.9,32.1,30.2,28.3,90,87,84,30.19,30.17,0,0,0,0.00
2012-11-22,60.7,36.9,26.1,42.3,32.2,24.4,94,84,50,30.20,29.95,4,0,0,0.00
2012-11-23,53.2,44.3,31.2,47.7,34.7,22.6,87,70,48,30.00,29.77,13,6,0,0.02
2012-11-24,32.5,31.0,30.3,26.5,24.3,22.9,83,76,71,30.07,29.98,8,6,0,0.00
2012-11-25,41.8,36.9,30.3,26.6,24.8,22.1,72,62,53,29.96,29.83,9,5,0,0.00
2012-11-26,40.5,38.5,36.7,30.3,29.6,28.9,76,70,63,30.19,30.13,3,0,0,0.00
2012-11-27,36.9,32.1,23.6,31.8,27.3,20.8,92,83,66,30.28,30.17,4,1,0,0.01
2012-11-28,41.0,28.6,20.6,26.2,22.1,17.9,93,78,49,30.35,30.25,7,1,0,0.00
2012-11-29,46.7,28.1,17.9,28.2,20.5,15.7,92,76,43,30.38,30.24,8,1,0,0.00
2012-11-30,52.4,42.0,24.6,35.0,32.3,21.8,89,69,50,30.26,30.15,6,2,0,0.00
2012-12-1,58.9,40.6,27.7,46.0,35.4,25.7,93,83,60,30.27,30.13,8,1,0,0.00
2012-12-2,55.3,52.5,40.1,53.6,49.8,37.6,94,91,74,30.15,29.98,9,3,0,0.25
2012-12-3,60.3,55.9,49.9,58.2,54.0,48.2,94,93,90,30.13,30.04,6,1,0,0.01
2012-12-4,61.3,54.9,43.7,57.4,51.3,41.4,94,88,79,30.05,29.90,9,4,0,0.71
2012-12-5,29.9,29.6,29.3,24.2,24.1,23.9,81,80,79,30.33,30.33,0,0,0,0.01
2012-12-6,36.0,33.7,32.4,33.1,30.7,28.4,90,88,85,30.05,29.99,0,0,0,0.01
2012-12-7,48.6,45.4,36.1,47.7,43.7,33.2,98,93,88,29.99,29.80,3,0,0,0.86
2012-12-8,54.3,49.4,40.2,51.7,46.9,36.9,94,91,84,30.04,29.75,5,2,0,0.02
2012-12-9,58.0,44.7,37.8,56.3,41.6,33.8,94,89,82,30.08,29.63,8,2,0,0.39
2012-12-10,58.0,46.8,35.6,56.3,44.9,33.7,94,93,89,29.78,29.53,7,2,0,0.98
2012-12-11,37.9,34.5,29.0,33.9,30.1,23.4,93,84,72,30.20,29.78,5,2,0,0.02
2012-12-12,41.8,29.3,20.4,29.7,24.1,18.4,94,81,59,30.41,30.20,5,1,0,0.00
2012-12-13,45.5,28.3,17.9,30.3,22.3,15.9,100,80,45,30.42,30.25,5,1,0,0.00
2012-12-14,49.4,32.5,20.6,34.0,25.9,18.6,94,79,51,30.27,30.18,5,1,0,0.00
2012-12-15,45.9,44.6,42.6,38.4,36.2,31.9,78,72,60,29.92,29.80,7,3,0,0.02
2012-12-16,58.0,53.3,45.7,52.5,47.7,38.4,93,81,70,29.80,29.60,8,4,0,0.28
2012-12-17,53.0,45.7,39.8,50.4,43.9,38.1,94,93,90,29.69,29.45,2,0,0,0.42
2012-12-18,46.5,40.3,37.3,44.9,38.2,34.6,95,92,80,29.73,29.46,6,2,0,0.08
2012-12-19,40.6,37.5,30.9,37.6,34.8,29.1,94,90,87,30.10,29.70,4,1,0,0.02
2012-12-20,49.2,42.1,31.7,45.1,37.9,29.9,94,85,69,30.07,29.27,16,6,0,0.74
2012-12-21,36.8,32.6,30.3,29.9,28.1,26.9,92,84,74,29.73,29.30,15,8,0,0.01
2012-12-22,32.8,30.4,23.4,27.1,23.8,19.8,87,76,72,30.08,29.75,8,4,0,0.00
2012-12-23,38.0,27.0,19.3,28.9,22.5,17.0,95,84,67,30.04,29.89,5,1,0,0.02
2012-12-24,35.7,29.4,19.9,33.1,26.8,18.0,94,90,77,29.99,29.74,3,0,0,0.07
2012-12-25,34.6,33.8,32.4,33.1,32.2,30.3,94,94,92,30.10,29.89,5,1,0,0.00
2012-12-27,31.2,31.1,31.0,28.8,28.6,28.5,91,90,90,30.04,30.02,3,2,0,0.00
2012-12-28,26.4,22.7,20.9,23.4,20.1,18.2,92,90,87,29.98,29.86,1,0,0,0.22
2012-12-29,30.6,27.6,26.4,28.0,25.3,23.1,94,91,86,29.99,29.67,6,1,0,0.09
2012-12-30,28.5,28.5,28.4,25.4,25.4,25.3,88,88,88,29.99,29.98,5,4,0,0.00
2012-12-31,32.4,32.0,31.8,29.7,29.3,29.0,90,90,89,30.03,30.00,7,4,0,0.00
2013-1-1,32.4,30.3,24.2,30.6,27.1,19.8,94,88,74,30.04,29.97,5,1,0,0.01